Flag for United Kingdom Weather past 2 weeks in Stafford, England, United Kingdom

Now
55 °F

Refreshingly cool.


Feels Like: 53 °F
Forecast: 47 / 62 °F
Wind: 8 mph from Northwest

Location: Shawbury

Current Time: Aug 23, 2014 at 8:51:56 PM

Latest Report: Aug 23, 2014 at 7:50 PM


Visibility: N/A

Pressure: 30.04 "Hg

Humidity: 59%

Dew point: 41 °F

Location of StaffordLocation

Historic Weather in Stafford — Graph

°F

Stafford temperature yesterday

Maximum temperature yesterday: 59 °F (at 12:50 PM)
Minimum temperature yesterday: 45 °F (at 11:50 PM)
Average temperature yesterday: 53 °F

Past Weeks' High & Low Weather Summary

 TemperatureHumidityPressure
High72 °F (Aug 9, 2:50 PM)100% (Aug 10, 12:50 AM)30.15 "Hg (Aug 10, 12:50 AM)
Low43 °F (Aug 23, 4:50 AM)44% (Aug 9, 2:50 PM)29.30 "Hg (Aug 10, 10:50 AM)
Average56 °F77%29.81 "Hg
* Reported Aug 8 7:50 PM — Aug 23 7:50 PM, Stafford, Weather by CustomWeather, © 2014

Note: Actual official high and low records may vary slightly from our data, if they occured in-between our weather recording intervals... More about our weather records

Advertising

Stafford weather history for previous 24 hours

 ConditionsComfort  
Time TempWeatherWind HumidityBarometerVisibility
7:50 PM
Aug 23
55 °FRefreshingly cool.8 mph59%30.04 "HgN/A
6:50 PM57 °FRefreshingly cool.12 mph59%30.01 "HgN/A
5:50 PM59 °FCool.12 mph63%30.01 "HgN/A
4:50 PM59 °FPassing clouds.14 mph68%30.01 "HgN/A
3:50 PM57 °FPartly sunny.8 mph67%30.01 "HgN/A
2:50 PM57 °FSprinkles. Partly sunny.7 mph67%29.98 "HgN/A
1:50 PM57 °FPartly sunny.10 mph77%29.98 "HgN/A
12:50 PM59 °FScattered clouds.9 mph63%29.98 "HgN/A
11:50 AM59 °FScattered clouds.14 mph51%29.95 "HgN/A
10:50 AM57 °FScattered clouds.12 mph63%29.95 "HgN/A
9:50 AM55 °FPartly sunny.10 mph72%29.95 "HgN/A
8:50 AM54 °FScattered clouds.12 mph72%29.95 "HgN/A
7:50 AM48 °FPartly sunny.8 mph87%29.95 "HgN/A
6:50 AM46 °FPassing clouds.8 mph93%29.95 "HgN/A
5:50 AM43 °FPassing clouds.9 mph93%29.92 "HgN/A
4:50 AM43 °FPassing clouds.9 mph93%29.92 "HgN/A
3:50 AM46 °FPassing clouds.8 mph87%29.92 "HgN/A
2:50 AM48 °FPassing clouds.6 mph87%29.92 "HgN/A
1:50 AM45 °FPassing clouds.7 mph93%29.95 "HgN/A
12:50 AM46 °FPassing clouds.8 mph87%29.95 "HgN/A
11:50 PM
Aug 22
45 °FPassing clouds.8 mph87%29.95 "HgN/A
10:50 PM50 °FPassing clouds.7 mph76%29.95 "HgN/A
9:50 PM50 °FPassing clouds.7 mph76%29.95 "HgN/A
8:50 PM54 °FScattered clouds.9 mph67%29.92 "HgN/A
Weather by CustomWeather, © 2014

See weather overviewHow to use our weather pages